Външен сензор Measurements

Back to Overview

Timestamp Temperature Humidity
8/23/2019 10:47:48 AM 26.1 C 53.5%
8/23/2019 10:45:32 AM 26.0 C 50.0%
8/23/2019 10:42:46 AM 25.7 C 53.8%
8/23/2019 10:39:45 AM 25.8 C 49.8%
8/23/2019 10:37:13 AM 25.7 C 54.0%
8/23/2019 10:36:27 AM 25.7 C 50.6%
8/23/2019 10:35:56 AM 25.7 C 55.4%
8/23/2019 10:30:23 AM 25.0 C 56.5%
8/23/2019 10:23:22 AM 24.7 C 55.6%
8/23/2019 10:17:35 AM 24.0 C 57.7%
8/23/2019 10:16:34 AM 24.0 C 54.5%
8/23/2019 10:09:47 AM 23.4 C 58.4%
8/23/2019 10:09:01 AM 23.4 C 55.2%
8/23/2019 10:06:30 AM 23.3 C 58.3%
8/23/2019 9:59:28 AM 22.7 C 59.7%
8/23/2019 9:53:41 AM 22.1 C 63.6%
8/23/2019 9:47:25 AM 21.4 C 64.1%
8/23/2019 9:41:38 AM 20.8 C 65.1%
8/23/2019 9:35:35 AM 20.1 C 63.4%
8/23/2019 9:34:20 AM 19.9 C 67.5%
8/23/2019 9:29:03 AM 19.3 C 70.7%
8/23/2019 9:22:16 AM 18.7 C 72.5%
8/23/2019 9:15:15 AM 18.1 C 73.9%
8/23/2019 9:08:14 AM 17.7 C 75.2%
8/23/2019 9:01:11 AM 17.3 C 76.3%
8/23/2019 8:54:10 AM 17.1 C 77.3%
8/23/2019 8:47:08 AM 16.8 C 78.5%
8/23/2019 8:40:06 AM 16.6 C 79.4%
8/23/2019 8:33:04 AM 16.4 C 79.3%
8/23/2019 8:26:03 AM 16.3 C 79.2%
8/23/2019 8:19:02 AM 16.2 C 79.3%
8/23/2019 8:11:59 AM 16.1 C 79.1%
8/23/2019 8:04:56 AM 15.9 C 78.7%
8/23/2019 7:57:55 AM 15.7 C 78.9%
8/23/2019 7:50:53 AM 15.6 C 79.0%
8/23/2019 7:43:50 AM 15.5 C 78.7%
8/23/2019 7:36:50 AM 15.3 C 78.8%
8/23/2019 7:29:47 AM 15.1 C 79.4%
8/23/2019 7:22:45 AM 14.8 C 79.9%
8/23/2019 7:15:44 AM 14.6 C 80.4%
8/23/2019 7:08:41 AM 14.2 C 81.4%
8/23/2019 7:01:40 AM 14.0 C 81.4%
8/23/2019 6:54:37 AM 14.1 C 81.4%
8/23/2019 6:47:36 AM 14.2 C 80.8%
8/23/2019 6:40:35 AM 14.3 C 80.6%
8/23/2019 6:33:32 AM 14.4 C 80.3%
8/23/2019 6:26:30 AM 14.5 C 80.0%
8/23/2019 6:19:29 AM 14.5 C 79.9%
8/23/2019 6:12:27 AM 14.5 C 79.9%
8/23/2019 6:05:25 AM 14.6 C 79.6%
8/23/2019 5:58:23 AM 14.7 C 78.9%
8/23/2019 5:51:22 AM 14.9 C 78.9%
8/23/2019 5:44:20 AM 15.1 C 78.2%
8/23/2019 5:37:18 AM 15.4 C 77.3%
8/23/2019 5:30:15 AM 15.4 C 77.3%
8/23/2019 5:23:13 AM 15.4 C 76.9%
8/23/2019 5:16:12 AM 15.4 C 76.8%
8/23/2019 5:09:12 AM 15.4 C 76.8%
8/23/2019 5:02:08 AM 15.3 C 77.1%
8/23/2019 4:55:06 AM 15.4 C 76.9%
8/23/2019 4:48:04 AM 15.5 C 76.7%
8/23/2019 4:41:04 AM 15.5 C 76.7%
8/23/2019 4:34:01 AM 15.6 C 76.5%
8/23/2019 4:26:57 AM 15.7 C 76.1%
8/23/2019 4:19:57 AM 15.8 C 76.1%
8/23/2019 4:12:55 AM 15.9 C 75.5%
8/23/2019 4:05:52 AM 16.1 C 75.4%
8/23/2019 3:58:51 AM 16.3 C 75.1%
8/23/2019 3:51:51 AM 16.4 C 75.1%
8/23/2019 3:44:47 AM 16.2 C 76.1%
8/23/2019 3:37:45 AM 16.2 C 76.2%
8/23/2019 3:30:42 AM 16.2 C 76.0%
8/23/2019 3:23:42 AM 16.2 C 75.5%
8/23/2019 3:16:40 AM 16.3 C 75.7%
8/23/2019 3:09:38 AM 16.3 C 76.3%
8/23/2019 3:02:36 AM 16.4 C 77.3%
8/23/2019 2:55:34 AM 16.4 C 78.2%
8/23/2019 2:48:32 AM 16.5 C 79.0%
8/23/2019 2:41:30 AM 16.7 C 78.8%
8/23/2019 2:34:28 AM 16.7 C 77.4%
8/23/2019 2:27:28 AM 16.8 C 77.4%
8/23/2019 2:20:24 AM 16.9 C 76.9%
8/23/2019 2:13:23 AM 17.0 C 78.8%
8/23/2019 2:06:21 AM 17.0 C 79.3%
8/23/2019 1:59:19 AM 17.0 C 79.3%
8/23/2019 1:52:17 AM 17.0 C 79.6%
8/23/2019 1:45:15 AM 17.0 C 79.9%
8/23/2019 1:38:15 AM 17.1 C 79.9%
8/23/2019 1:31:10 AM 17.1 C 78.5%
8/23/2019 1:24:10 AM 17.2 C 77.4%
8/23/2019 1:17:08 AM 17.3 C 77.2%
8/23/2019 1:10:05 AM 17.6 C 76.4%
8/23/2019 1:03:04 AM 18.0 C 74.9%
8/23/2019 12:56:01 AM 18.2 C 73.0%
8/23/2019 12:49:00 AM 18.3 C 71.1%
8/23/2019 12:41:58 AM 18.3 C 70.7%
8/23/2019 12:34:56 AM 18.3 C 71.8%
8/23/2019 12:27:54 AM 18.3 C 72.3%
8/23/2019 12:20:53 AM 18.4 C 71.0%
8/23/2019 12:13:51 AM 18.5 C 71.0%
8/23/2019 12:06:51 AM 18.6 C 71.0%